CamptonHillsWeather.com

Find the Weather for any City, State  
or Zipcode, or Country:

Campton Hills, IL Weather
Local Radar

Local Radar

Graphs, Details
Graphs and Gauges
Detailed Weather
Detailed Reports
Ajax Version (old)
Central Kane Co Summary
Davis Current Weather Graphs
Davis 24 Hour Weather History

CW3778 Data

Weather Underground
Maps
Temperature
Heat Index
Windchill
Humidity
Radar
Dew Point
Wind
Visibility
Visible Satellite
Satellite
Fronts
Snow Depth
Jet Stream
Flight Rules
Forecast Maps
Temperature Forecast
Maximum Temperature Forecast
Minimum Temperature Forecast
Dewpoint Forecast
Prevalent Weather
12Hr Probability of Precip.
Sky Cover
Health Maps
UV Forecast
Air Quality
Peak Air Quality Index
Weather Station
Davis Instruments Vantage Pro
Current Conditions [Select Refresh to Update]

Updated: 2:47am on 8/1/15

(location)
Currently:
61.5F

Clear
Clear

High: 64.0 F< 
(12:00am
Low: 61.4 F 
(2:47am)
Wind: WNW 0 mph
Calm
Gust: 2 mph
Today's High Wind: 2 mph (12:02am)
Humidity: 80%
Pressure: 29.97 in  (Steady
Pressure Rate: -0.004 in/hr
Dew Point: 55.3F
Wind Chill: 61.5 F
Heat Index (feels like): 65.7 F
Comfort Level: Comfortable
Temperature Rate:  -0.91F/hr
 
5 Day Forecast
 
Sat Sun Mon Tue Wed
Clear Clear Clear Clear Clear
Chance T-storms Chance T-storms Mostly Cloudy Chance Rain Chance T-storms
86 86 83 80 77
66 66 62 62 60

Records and Normals
 
Temperature Forecast Normal Record
High 86 84 96
(2006)
Low 66 62 51
(1998)
 
Links
 
 
Weather Advisories
No Advisories
Full Advisory Text...
Weather Map

Web Cam

Almanac
 
Sunrise:  
5:49am
Moonrise: 
8:56pm

Moon Phase:
100%

Sunset: 
8:14pm
Moonset:  
7:14am
 Star Chart...
Rainfall Totals
Hourly Rain 0.00 in
Daily Rain: 0.00 in
Monthly Rain: 0.00 in
Yearly Rain: 24.93 in
Normal Rain, month to date: 3.26 in
Normal Rain, year to date: 22.26 in
Link to Village of Campton Hills Map

Link to Counties of Illinois Map

Local Weather Exchange Network
Station ID City 
(Click for Map Location)
Neighborhood 
(Click for History)
Last Update (Date & Time) Temperature
 ()
Dew
Point ()
Humidity 
(%)
Wind 
(mph)
from the Wind Gust 
(mph) 
Pressure(in) Hourly
Rain(in)
KILSAINT10 Saint Charles Saint Charles Burr Road 08/01 02:34:27 61.0 55.0 81 0 NE 0 29.68 0.00
MD5528 Wasco APRSWXNET 08/01 02:08:00 62.0 53.0 73 0 WSW 0 29.95 0.00
KILGENEV5 Geneva meso_neigh3 08/01 02:37:28 63.5 55.0 73 3 NW 7 29.92 0.00
KILSTCHA10 St. Charles Hunt Club 08/01 02:37:48 60.4 38.0 43 0 ESE 0 29.54 0.00
KILSAINT8 Saint Charles St. Charles Near West Side 08/01 02:31:10 59.7 54.0 81 0 SSW 0 29.76 0.00
KILWAYNE4 Wayne Hampton Course 08/01 02:36:33 66.7 57.0 71 0 North 0 30.09 0.00
KILSAINT7 Saint Charles Silver Glen 08/01 02:37:32 64.2 56.0 75 0 SSW 0 29.59 0.00
KILCAMPT3 Campton Hills Campton Hills 08/01 02:38:15 63.4 54.0 71 0 NW 2 29.98 0.00
KILSAINT6 Saint Charles 3 Lakes 08/01 02:31:10 61.3 51.0 70 0 NNW 0 29.74 0.00
KILSAINT9 Saint Charles Fox Chase 08/01 02:37:58 63.0 56.0 78 0 WSW 0 29.98 0.00
KILGENEV6 Geneva Dover Ridge 08/01 02:38:12 63.6 55.0 74 1 WNW 0 29.94 0.00
MUR354 Geneva MesoWest 08/01 01:40:00 57.0 0.0 0 4 West 6 0.00 0.00
KILGENEV10 Geneva Southampton Drive 08/01 02:37:01 60.8 56.0 83 0 North 0 30.06 0.00
KILSTCHA8 St. Charles Ronzheimer Ave. & S. Tyler Rd. 08/01 02:37:58 64.6 55.0 71 0 WSW 2 29.94 0.00
KILGENEV9 Geneva Saint Andrews Circle 08/01 02:36:46 62.8 56.0 77 0 North 0 30.06 0.00
KILGENEV3 Geneva Mill Creek (Blackberry Way) 08/01 02:38:14 63.5 55.0 75 6 NW 8 29.97 0.00
KILSTCHA1 St Charles CamptonHillsWeather.com Central Kane County 08/01 02:38:04 61.6 55.0 80 0 WNW 1 29.97 0.00
KILGENEV7 Geneva Eldorado Drive 08/01 02:36:37 68.7 56.0 63 0 North 0 29.93 0.00
KILGENEV8 Geneva Alexander Drive 08/01 02:36:32 51.8 45.0 77 0 North 0 29.87 0.00
KILSOUTH5 South Elgin Concord Park 08/01 02:37:30 61.0 55.0 82 0 South 0 29.75 0.00
KILGENEV2 Geneva Mill Creek 08/01 02:30:39 63.2 54.0 72 1 WNW 5 29.91 0.00
KILELBUR11 Elburn Cheval de Selle 08/01 02:30:44 62.8 56.0 80 5 NW 0 29.98 0.00
KILBATAV7 Batavia Charleston Street 08/01 02:36:52 62.8 53.0 71 0 North 0 30.07 0.00
KILBATAV1 Batavia Tri-Cities on the Fox River 08/01 02:37:55 64.0 50.0 61 0 North 0 29.98 0.00
KILELGIN16 Elgin Providence Subdivision 08/01 02:32:01 61.7 52.0 70 2 NNW 0 29.73 0.00
KILELBUR10 Elburn Prairie Valley North 08/01 02:38:15 58.6 54.0 83 1 SSW 2 28.93 0.00
KILBATAV10 Batavia Deerpath Road 08/01 02:36:44 65.7 55.0 67 0 North 0 29.99 0.00
KILELBUR9 Elburn Griffith Avenue 08/01 02:36:28 66.9 55.0 66 0 North 0 29.21 0.00
KILELBUR5 Elburn Prairie Highlands 08/01 02:35:15 62.3 56.0 80 0 North 0 29.96 0.00
KILWESTC12 West Chicago Woodland Avenue 08/01 02:37:00 64.0 53.0 68 0 North 0 30.06 0.00
KILELBUR12 Elburn Seaton Street 08/01 02:36:47 68.9 54.0 59 0 North 0 30.03 0.00
MD7322 Elburn APRSWXNET 08/01 02:13:00 59.0 55.0 87 0 NNW 1 29.97 0.00
KILBATAV3 Batavia West Batavia 08/01 02:15:13 62.4 56.0 80 0 WNW 0 29.93 0.00
KILELBUR6 Elburn Columbine Square 08/01 02:33:01 63.7 55.0 74 0 NW 4 29.92 0.00
KILBATAV5 Batavia Fermi National Accelerator Laboratory 08/01 02:36:12 63.9 55.0 73 1 West 4 29.91 0.00
KILELBUR8 Elburn Columbine 08/01 02:23:51 61.1 55.0 80 1 NW 4 29.94 0.00
KILWESTC5 West Chicago THEBROWNHOUSE.ORG 08/01 02:38:00 57.4 51.0 78 0 WNW 0 29.98 0.00
KILWESTC8 West Chicago Ingalton Hills Estates 08/01 02:38:09 63.0 55.0 74 2 SW 2 30.10 0.00
KILNORTH29 North Aurora County Club Estates 08/01 02:36:47 57.4 55.0 90 0 SW 0 29.95 0.00
KDPA Chicago DuPage Official Station 08/01 01:52:00 63.0 53.0 70 7 West --- 29.99 ---
Full Advisory Text
No Warnings

Ambient Weather and Weather Underground
 Never base important decisions on this or any weather information obtained from the Internet
Updated Automatically by Ambient Weather's Virtual Weather Station  V13.01